Saint Thomas, VI

7:26 AM AST on February 08, 2016 (GMT -0400)
King

Weather History for TIST - January, 2013

Change the Weather History Date:

Sunday, January 6, 2013

  Actual Average Record
Temperature  
Mean Temperature 82 °F 79 °F  
Max Temperature 86 °F 85 °F 92 °F (1981)
Min Temperature 77 °F 73 °F 68 °F (2006)
Degree Days  
Heating Degree Days 0 0  
Month to date heating degree days 0 0  
Since 1 July heating degree days 0 0  
Cooling Degree Days 17 14  
Month to date cooling degree days 89 84  
Year to date cooling degree days 89 84  
Growing Degree Days 32 (Base 50)    
Moisture  
Dew Point 69 °F    
Average Humidity 69    
Maximum Humidity 79    
Minimum Humidity 59    
Precipitation  
Precipitation 0.00 in 0.08 in 3.27 in (1992)
Month to date precipitation 0.04 0.52  
Year to date precipitation 0.04 0.52  
Sea Level Pressure  
Sea Level Pressure 30.09 in    
Wind  
Wind Speed 14 mph (East)    
Max Wind Speed 25 mph    
Max Gust Speed 31 mph    
Visibility 10 miles    
Events      
T = Trace of Precipitation, MM = Missing Value Source: NWS Daily Summary

Daily Weather History Graph

Daily Weather History Graph

Search for Another Location

Airport or City:

Trip Planner

Search our weather history database for the weather conditions in past years. The results will help you decide how hot, cold, wet, or windy it might be!

Date:

Astronomy

Jan. 06, 2013 Rise Set
Actual Time 6:53 AM AST 5:58 PM AST
Civil Twilight 6:29 AM AST 6:22 PM AST
Nautical Twilight 6:02 AM AST 6:49 PM AST
Astronomical Twilight 5:36 AM AST 7:15 PM AST
Moon 1:22 AM AST (1/6) 1:07 PM AST (1/6)
Length of Visible Light 11h 52m
Length of Day
11h 05m
Waning Crescent, 34% of the Moon is Illuminated
Jan 6
Waning Crescent
Jan 11
New
Jan 18
First Quarter
Jan 27
Full
Feb 3
Last Quarter

Hourly Weather History & Observations

Time (AST) Temp. Heat Index Dew Point Humidity Pressure Visibility Wind Dir Wind Speed Gust Speed Precip Events Conditions
12:53 AM 78.1 °F - 68.0 °F 71% 30.11 in 10.0 mi East 15.0 mph 21.9 mph N/A   Scattered Clouds
1:53 AM 78.1 °F - 68.0 °F 71% 30.10 in 10.0 mi East 13.8 mph - N/A   Partly Cloudy
2:53 AM 77.0 °F - 68.0 °F 74% 30.09 in 10.0 mi East 9.2 mph - N/A   Partly Cloudy
3:53 AM 77.0 °F - 68.0 °F 74% 30.07 in 10.0 mi East 11.5 mph - N/A   Partly Cloudy
4:53 AM 77.0 °F - 68.0 °F 74% 30.07 in 10.0 mi East 13.8 mph - N/A   Partly Cloudy
5:53 AM 77.0 °F - 68.0 °F 74% 30.08 in 10.0 mi East 10.4 mph 20.7 mph N/A   Partly Cloudy
6:53 AM 77.0 °F - 66.9 °F 71% 30.10 in 10.0 mi East 10.4 mph 18.4 mph N/A   Clear
7:53 AM 79.0 °F - 68.0 °F 69% 30.12 in 10.0 mi ENE 9.2 mph 19.6 mph N/A   Mostly Cloudy
8:53 AM 81.0 °F 83.8 °F 68.0 °F 65% 30.13 in 10.0 mi East 19.6 mph 26.5 mph N/A   Clear
9:53 AM 82.9 °F 85.8 °F 68.0 °F 60% 30.13 in 10.0 mi East 15.0 mph 23.0 mph N/A   Clear
10:53 AM 84.0 °F 87.0 °F 68.0 °F 58% 30.12 in 10.0 mi East 19.6 mph 29.9 mph N/A   Clear
11:53 AM 84.9 °F 88.2 °F 68.0 °F 57% 30.10 in 10.0 mi East 16.1 mph - N/A   Mostly Cloudy
12:53 PM 84.9 °F 88.8 °F 69.1 °F 59% 30.08 in 10.0 mi East 16.1 mph 28.8 mph N/A   Mostly Cloudy
1:53 PM 84.9 °F 88.8 °F 69.1 °F 59% 30.06 in 10.0 mi East 18.4 mph 27.6 mph N/A   Partly Cloudy
2:53 PM 82.9 °F 85.8 °F 68.0 °F 60% 30.05 in 10.0 mi East 23.0 mph 27.6 mph N/A   Partly Cloudy
3:53 PM 84.0 °F 87.0 °F 68.0 °F 58% 30.05 in 10.0 mi East 17.3 mph 26.5 mph N/A   Partly Cloudy
4:53 PM 81.0 °F 84.1 °F 69.1 °F 67% 30.06 in 10.0 mi ESE 18.4 mph - N/A   Overcast
5:53 PM 78.1 °F - 71.1 °F 79% 30.06 in 10.0 mi East 9.2 mph - N/A   Mostly Cloudy
6:53 PM 79.0 °F - 70.0 °F 74% 30.07 in 10.0 mi East 10.4 mph 17.3 mph N/A   Mostly Cloudy
7:53 PM 79.0 °F - 69.1 °F 72% 30.09 in 10.0 mi East 17.3 mph 20.7 mph N/A   Mostly Cloudy
8:53 PM 78.1 °F - 69.1 °F 74% 30.09 in 10.0 mi East 12.7 mph 21.9 mph N/A   Partly Cloudy
9:53 PM 78.1 °F - 70.0 °F 76% 30.10 in 10.0 mi East 12.7 mph 20.7 mph N/A   Scattered Clouds
10:53 PM 78.1 °F - 69.1 °F 74% 30.09 in 10.0 mi East 8.1 mph - N/A   Mostly Cloudy
11:53 PM 78.1 °F - 69.1 °F 74% 30.09 in 10.0 mi East 10.4 mph - N/A   Mostly Cloudy